Hutchinson, KS

1:29 PM CST on November 12, 2019 (GMT -0600)
Hutchinson Municipal

Weather History for KHUT - July, 2019

Change the Weather History Date:

Saturday, July 27, 2019

  Actual Average Record
Temperature  
Mean Temperature 78 °F -  
Max Temperature 93 °F 90 °F 113 °F (2011)
Min Temperature 64 °F 66 °F 52 °F (2005)
Cooling Degree Days 14    
Growing Degree Days 28 (Base 50)    
Moisture  
Dew Point 57 °F    
Average Humidity 48    
Maximum Humidity 78    
Minimum Humidity 27    
Precipitation  
Precipitation 0.00 in - - ()
Sea Level Pressure  
Sea Level Pressure 30.04 in    
Wind  
Wind Speed 10 mph (South)    
Max Wind Speed 17 mph    
Max Gust Speed 28 mph    
Visibility 10 miles    
Events      
Averages and records for this station are not official NWS values.
T = Trace of Precipitation, MM = Missing Value Source: NWS Daily Summary

Daily Weather History Graph

Daily Weather History Graph

Search for Another Location

Airport or City:

Astronomy

Jul. 27, 2019 Rise Set
Actual Time 6:29 AM CDT 8:45 PM CDT
Civil Twilight 6:00 AM CDT 9:15 PM CDT
Nautical Twilight 5:23 AM CDT 9:51 PM CDT
Astronomical Twilight 4:43 AM CDT 10:31 PM CDT
Moon 2:15 AM CDT (7/27) 4:38 PM CDT (7/27)
Length of Visible Light 15h 14m
Length of Day
14h 15m
Waning Crescent, 24% of the Moon is Illuminated
Jul 27
Waning Crescent
Jul 31
New
Aug 7
First Quarter
Aug 15
Full
Aug 23
Last Quarter

Hourly Weather History & Observations

Time (CDT) Temp. Heat Index Dew Point Humidity Pressure Visibility Wind Dir Wind Speed Gust Speed Precip Events Conditions
12:52 AM 72.0 °F - 57.0 °F 59% 30.06 in 10.0 mi SSE 8.1 mph - N/A   Clear
1:52 AM 71.1 °F - 57.0 °F 61% 30.06 in 10.0 mi South 6.9 mph - N/A   Clear
2:52 AM 69.1 °F - 57.0 °F 65% 30.06 in 10.0 mi South 5.8 mph - N/A   Clear
3:52 AM 70.0 °F - 57.0 °F 63% 30.05 in 10.0 mi South 8.1 mph - N/A   Clear
4:52 AM 66.9 °F - 57.0 °F 70% 30.06 in 10.0 mi South 6.9 mph - N/A   Clear
5:52 AM 64.0 °F - 57.0 °F 78% 30.07 in 10.0 mi SSE 5.8 mph - N/A   Clear
6:52 AM 66.0 °F - 57.9 °F 75% 30.07 in 10.0 mi South 6.9 mph - N/A   Clear
7:52 AM 71.1 °F - 59.0 °F 66% 30.08 in 10.0 mi South 8.1 mph - N/A   Clear
8:52 AM 75.9 °F - 59.0 °F 56% 30.09 in 10.0 mi South 15.0 mph - N/A   Clear
9:52 AM 80.1 °F 80.7 °F 59.0 °F 48% 30.09 in 10.0 mi South 15.0 mph 24.2 mph N/A   Clear
10:52 AM 84.0 °F 83.8 °F 59.0 °F 43% 30.08 in 10.0 mi South 17.3 mph - N/A   Clear
11:52 AM 88.0 °F 87.1 °F 59.0 °F 37% 30.06 in 10.0 mi South 16.1 mph - N/A   Clear
12:52 PM 91.0 °F 90.2 °F 59.0 °F 34% 30.05 in 10.0 mi South 16.1 mph 24.2 mph N/A   Clear
1:52 PM 93.0 °F 92.0 °F 57.9 °F 31% 30.03 in 10.0 mi South 16.1 mph 27.6 mph N/A   Clear
2:52 PM 93.9 °F 92.6 °F 57.0 °F 29% 30.02 in 10.0 mi SSW 16.1 mph 25.3 mph N/A   Clear
3:52 PM 93.9 °F 92.2 °F 55.9 °F 28% 30.00 in 10.0 mi South 16.1 mph 23.0 mph N/A   Clear
5:52 PM 93.9 °F 92.0 °F 55.0 °F 27% 29.97 in 10.0 mi South 17.3 mph - N/A   Clear
6:52 PM 91.9 °F 89.5 °F 53.1 °F 27% 29.96 in 10.0 mi South 16.1 mph 25.3 mph N/A   Clear
7:52 PM 89.1 °F 87.1 °F 55.0 °F 31% 29.96 in 10.0 mi SSE 12.7 mph - N/A   Clear
8:52 PM 82.9 °F 82.1 °F 55.9 °F 39% 29.97 in 10.0 mi SSE 10.4 mph - N/A   Clear
9:52 PM 79.0 °F - 55.9 °F 45% 29.98 in 10.0 mi SE 10.4 mph - N/A   Clear